WetterOnline ( https://www.wetteronline.de )

Wetter aktuell Stendal

Aktuelles Wetter: Gardelegen (48m)

6-stündlich | Neueste Meldungen
Ortszeit Temperatur Wetter
Di, 18.06. 2:00 12.2° C leicht bewölkt
Mo, 17.06. 20:00 20.5° C bedeckt
Mo, 17.06. 14:00 22.4° C wolkig
Mo, 17.06. 8:00 17.6° C bedeckt
Mo, 17.06. 2:00 14.4° C wolkig
So, 16.06. 20:00 20.9° C wolkig
So, 16.06. 14:00 21.0° C bedeckt
So, 16.06. 8:00 17.2° C wolkig
Ortszeit Temperatur Wetter
Di, 18.06. 3:10 11.3° C bewölkt
Di, 18.06. 3:00 11.7° C leicht bewölkt
Di, 18.06. 2:50 11.7° C leicht bewölkt
Di, 18.06. 2:40 11.9° C wolkig
Di, 18.06. 2:30 11.7° C leicht bewölkt
Di, 18.06. 2:20 11.7° C leicht bewölkt
Di, 18.06. 2:00 12.2° C leicht bewölkt
Di, 18.06. 1:30 13.2° C bewölkt
Di, 18.06. 1:00 13.1° C wolkig
Di, 18.06. 0:30 13.8° C bewölkt
Ortszeit Relative Feuchte Sichtweite
Di, 18.06. 2:00 95% 40 km
Mo, 17.06. 20:00 57% >70 km
Mo, 17.06. 14:00 61% 60 km
Mo, 17.06. 8:00 69% 60 km
Mo, 17.06. 2:00 80% 60 km
So, 16.06. 20:00 47% 65 km
So, 16.06. 14:00 46% 55 km
So, 16.06. 8:00 57% 50 km
Ortszeit Relative Feuchte Sichtweite
Di, 18.06. 3:10 95% -
Di, 18.06. 3:00 95% 40 km
Di, 18.06. 2:50 95% -
Di, 18.06. 2:40 97% -
Di, 18.06. 2:30 95% 30 km
Di, 18.06. 2:20 95% -
Di, 18.06. 2:00 95% 40 km
Di, 18.06. 1:30 96% 50 km
Di, 18.06. 1:00 95% 40 km
Di, 18.06. 0:30 96% 50 km
Ortszeit Niederschlagsmenge Niederschlagsart
Di, 18.06. 2:00 0.1 l/m2 in 6 Std. Regen
Mo, 17.06. 20:00 0.1 l/m2 in 12 Std. Regen
Mo, 17.06. 14:00 0.1 l/m2 in 6 Std. Regen
Mo, 17.06. 8:00 0.1 l/m2 in 12 Std. -
Mo, 17.06. 2:00 0.1 l/m2 in 6 Std. Regen
So, 16.06. 20:00 0.1 l/m2 in 12 Std. Regen
So, 16.06. 14:00 0.0 l/m2 in 6 Std. -
So, 16.06. 8:00 0.0 l/m2 in 12 Std. -
Ortszeit Niederschlagsmenge Niederschlagsart
Di, 18.06. 3:10 keine Meldung -
Di, 18.06. 3:00 0.0 l/m2 in 1 Std. -
Di, 18.06. 2:50 keine Meldung -
Di, 18.06. 2:40 keine Meldung -
Di, 18.06. 2:30 0.0 l/m2 in 30 Min -
Di, 18.06. 2:20 keine Meldung -
Di, 18.06. 2:00 0.0 l/m2 in 1 Std. Regen
Di, 18.06. 1:30 0.0 l/m2 in 30 Min -
Di, 18.06. 1:00 <0.05 l/m2 in 1 Std. Regen
Di, 18.06. 0:30 <0.05 l/m2 in 30 Min Schneeregen
Ortszeit Stärke Spitze Richtung
km/h Bft. km/h Grad Sektor
Di, 18.06. 2:00 0 0 11 - -
Mo, 17.06. 20:00 7 2 29 50° NO
Mo, 17.06. 14:00 11 2 25 250° W
Mo, 17.06. 8:00 6 1 9 200° S
Mo, 17.06. 2:00 2 1 13 170° S
So, 16.06. 20:00 7 2 40 230° SW
So, 16.06. 14:00 18 3 40 200° S
So, 16.06. 8:00 7 2 11 180° S
Ortszeit Stärke Spitze Richtung
km/h Bft. km/h Grad Sektor
Di, 18.06. 3:10 0 0 - 270° W
Di, 18.06. 3:00 0 0 4 - -
Di, 18.06. 2:50 2 1 - 170° S
Di, 18.06. 2:40 0 0 - 200° S
Di, 18.06. 2:30 0 0 4 - -
Di, 18.06. 2:20 0 0 - 200° S
Di, 18.06. 2:00 0 0 4 - -
Di, 18.06. 1:30 0 0 4 - -
Di, 18.06. 1:00 4 1 7 200° S
Di, 18.06. 0:30 4 1 7 190° S
Ortszeit Untergrenze Bedeckung Gattung
total tief tief mittel hoch
Di, 18.06. 2:00 6300 m 3/8 2/8 - - -
Mo, 17.06. 20:00 3000 m 8/8 8/8 - - -
Mo, 17.06. 14:00 1140 m 6/8 6/8 - - -
Mo, 17.06. 8:00 1500 m 8/8 8/8 - - -
Mo, 17.06. 2:00 2400 m 7/8 5/8 - - -
So, 16.06. 20:00 2100 m 8/8 2/8 - - -
So, 16.06. 14:00 1500 m 8/8 8/8 - - -
So, 16.06. 8:00 2100 m 7/8 5/8 - - -
Ortszeit Bedeckungsgrad in Achtel und Wolkenuntergrenze
Di, 18.06. 3:10 7
Di, 18.06. 3:00 6(9000m)
Di, 18.06. 2:50 6(9000m)
Di, 18.06. 2:40 6
Di, 18.06. 2:30 2(1800m) 3(2400m)
Di, 18.06. 2:20 2(1800m) 3(2400m)
Di, 18.06. 2:00 2(6300m) 3(9000m)
Di, 18.06. 1:30 7(6600m) 8(9000m) 8(9000m)
Di, 18.06. 1:00 3(2700m) 7(6900m) 7(8100m)
Di, 18.06. 0:30 1(2100m) 6(2700m) 7(8400m)
Ortszeit Luftdruck NN (hPa) Tendenz (hPa in 3 Std.)
Di, 18.06. 2:00 1015 + 0,5
Mo, 17.06. 20:00 1013 + 1,3
Mo, 17.06. 14:00 1012 + 0,1
Mo, 17.06. 8:00 1012 + 0,5
Mo, 17.06. 2:00 1011 + 0,6
So, 16.06. 20:00 1009 + 0,4
So, 16.06. 14:00 1009 - 0,7
So, 16.06. 8:00 1009 0,0
Ortszeit Luftdruck NN (hPa) Tendenz (hPa in 3 Std.)
Di, 18.06. 3:10 1015 keine Meldung
Di, 18.06. 3:00 1015 + 0,4
Di, 18.06. 2:50 1015 keine Meldung
Di, 18.06. 2:40 1015 keine Meldung
Di, 18.06. 2:30 1015 + 0,5
Di, 18.06. 2:20 1015 keine Meldung
Di, 18.06. 2:00 1015 + 0,5
Di, 18.06. 1:30 1015 + 0,8
Di, 18.06. 1:00 1015 + 1,0
Di, 18.06. 0:30 1015 + 1,2
Ortszeit Schneehöhe (cm)
Di, 18.06. 2:00 0
Mo, 17.06. 20:00 0
Mo, 17.06. 14:00 0
Mo, 17.06. 8:00 0
Mo, 17.06. 2:00 0
So, 16.06. 20:00 0
So, 16.06. 14:00 0
So, 16.06. 8:00 0
Ortszeit Schneehöhe (cm)
Di, 18.06. 3:10 -
Di, 18.06. 3:00 0
Di, 18.06. 2:50 0
Di, 18.06. 2:40 -
Di, 18.06. 2:30 0
Di, 18.06. 2:20 0
Di, 18.06. 2:00 0
Di, 18.06. 1:30 0
Di, 18.06. 1:00 0
Di, 18.06. 0:30 0
Link zu dieser Seite / Seite empfehlen

Das Wetter in ...